   Wierzchoś. Measurer hos. 1.5-m reflector + 4K CCD + 10K CCD.
(H06) RAS Observatory, Mayhill  (N32.903325 W105.528700)  US/New
   Mexico.  Observers E. Guido, G. Sostero, V. Gonano, L. Donato.
(I52) Steward Observatory, Mt. Lemmon Station  (N32.442547 W110.788920)
   US/Arizona.  Observers T. A. Pruyne, B. M. Africano, E. C. Beshore, A.
   Boattini, E. J. Christensen, G. A. Farneth, D. C. Fuls, G. J. Garradd, A.
   R. Gibbs, A. D. Grauer, H. Gröller, R. E. Hill, J. A. Johnson, R. A.
   Kowalski, S. M. Larson, G. J. Leonard, R. H. McNaught, D. Rankin, R. L.
   Seaman, F. C. Shelly, K. W. Wierzchoś. Measurer hos. 1.0-m reflector + CCD.
(J04) ESA Optical Ground Station, Tenerife  (N28.300924 W16.511830)  Canary
   Islands (Spain).  Observer D. Abreu. Measurers M. Micheli, D. Koschny, E.
   Schwab, M. Busch, A. Knöfel. 1.0-m f/4.4 reflector + CCD.
(J95) Great Shefford  (N51.474969 W1.447003)  UK.  Observer P. Birtwhistle.
   0.40-m f/6.0 Schmidt-Cassegrain + CCD.
(Q62) iTelescope Observatory, Siding Spring  (S31.273289 E149.064420)
   Australia/NSW. 0.50-m f/6.8 astrograph + CCD + focal reducer, 0.70-m f/6.6
   astrograph + CCD.
(Z84) Calar Alto-Schmidt  (N37.223981 W2.548143)  Spain.  Observer E. Schwab.
   Measurers E. Schwab, D. Koschny, M. Micheli. 0.8-m f/3 Schmidt + CCD.

Orbital elements:  P/2007 VQ11 (CATALINA)
   Perihelion 2020 Sep 16.3528989 +/- 0.00399028 TT =  8:28:10.46 (JD 2459108.8528989)
Epoch 2020 Oct 16.0 TT = JDT 2459138.5   Ju: 0.3356           Find_Orb
M   2.3120845123 +/- 0.000311354
n   0.0779868663 +/- 9.51649e-9     Peri.  277.6648823 +/- 0.0012078
a   5.4256911610 +/- 4.41378e-7     Node   163.8183183 +/- 0.000461125
e   0.503239036 +/- 1.33321e-6      Incl.   12.3199342 +/- 1.83644e-5
P  12.64           M(N) 13.0    K  10.0     U  1.5
q 2.6952715714 +/- 7.03164e-6    Q 8.1561107506 +/- 7.85025e-6
From 92 observations 2007 Nov. 3-2020 Oct. 16; mean residual 0".735
Residuals in arcseconds: 
071103 703 .225- 1.12-    080201 J95 .204+ .150+    080304 703 .468- .029-    
071103 703 .460- .525-    080201 J95 .072+ .127+    080304 703 .336+ .984-    
071103 703 .696- .175+    080201 J95 .392+ .092-    080304 703 .524+ .353+    
071103 703 .927- .218-    080202 215 .610+ .302+    080305 118 .444- .082-    
071106 D29 .309+ .599-    080202 215 .046- .480-    080305 118 .568- .480-    
071106 D29 1.01+ .513-    080202 215 .344+ 1.16-    080327 704 .931- .775+    
071106 D29 .303+ .610-    080202 204 .566+ 5.1m-    080327 704 .416- .369+    
071106 D29 .085+ 7.3m+    080202 204 .351+ .326-    080327 704 .551- 1.05-    
071109 703 .041+ .445+    080205 118 1.42- .623-    080327 704 1.22- .470+    
071109 703 .654- .228-    080205 118 1.08- 1.22-    080327 704 1.40+ .257+    
071109 703 1.37- 1.32-    080206 A77 .538- 3.08+    200818 H06 .257- .098-    
071109 703 7.0m- 1.31-    080206 A77 1.42- 1.35-    200818 H06 .123- .043-    
071118 699 .598+ .587+    080206 A77 .737+ 1.97+    200818 Q62 .413- .436-    
071118 699 .942- .199+    080207 G96 .025+ .048-    200818 Q62 .549- .523-    
071118 699 .067+ .213+    080207 G96 1.01+ .045-    200819 Z84 .349- .576-    
071118 699 .767+ .475-    080207 G96 .815+ .128-    200819 Z84 .170+ .936-    
071205 703 .967+ .746+    080207 G96 .138+ .333-    200819 Z84 .262+ .694-    
071205 703 1.9m+ 1.11+    080207 130 .234+ .424-    201015 G96 .529- .083-    
071205 703 .343- 1.68+    080207 130 .927- .796-    201015 G96 .179+ .539-    
071205 703 .093- 1.75+    080207 130 .944+ .335-    201015 G96 .179+ .204-    
080201 703 1.84+ .310-    080209 204 .250+ .267-    201015 G96 .369- .038-    
080201 703 1.56+ 1.23+    080209 204 .240- .032-    201015 G96 .533+ .716-    
080201 703 1.32+ 1.29+    080210 699 .525+ .109+    201015 G96 .701+ .284-    
080201 703 1.69+ .861+    080210 699 .166+ .185+    201015 G96 .070- .579-    
080201 703 .285+ .640+    080210 699 .131+ .489-    201016 J04 .257+ .195-    
080201 703 .441+ 1.25+    080210 699 2.05+ .890+    201016 J04 925µ+ .175+    
080201 703 1.03+ .251+    080210 D88 .593+ .876-    201016 J04 .249+ .155-    
080201 673 .254- .181-    080210 D88 .082- .034-    201016 I52 .141+ 1.36-    
080201 673 .235- .093-    080210 349 .156- .134+    201016 I52 .127- 1.07-    
080201 673 .013- .179+    080210 349 .982- .657-    201016 I52 .487+ .288-    
080201 673 .149+ .644+    080304 703 .703- .617+    

Ephemerides (geocentric):
Date (UTC) HH   RA              Dec         delta   r     elong  mag " sig PA
---- --------  --------------  -----------  -----  ------ -----  --- --------
2020 10 17 16  07 28 33.834   +08 49 18.80   2.4815 2.7053  91.9 19.3 .108  95
2020 10 17 17  07 28 36.222   +08 49 06.27   2.4810 2.7053  92.0 19.3 .109  95
2020 10 17 18  07 28 38.608   +08 48 53.75   2.4805 2.7053  92.0 19.3 .109  95
2020 10 17 19  07 28 40.992   +08 48 41.22   2.4800 2.7054  92.0 19.3 .109  95
2020 10 17 20  07 28 43.375   +08 48 28.69   2.4795 2.7054  92.1 19.3 .109  95
2020 10 17 21  07 28 45.756   +08 48 16.16   2.4791 2.7054  92.1 19.3 .110  95
2020 10 17 22  07 28 48.134   +08 48 03.64   2.4786 2.7054  92.1 19.3 .110  95
2020 10 17 23  07 28 50.511   +08 47 51.12   2.4781 2.7055  92.2 19.3 .110  95
2020 10 18 00  07 28 52.886   +08 47 38.59   2.4776 2.7055  92.2 19.3 .111  95
2020 10 18 01  07 28 55.260   +08 47 26.07   2.4771 2.7055  92.2 19.3 .111  95
2020 10 18 02  07 28 57.631   +08 47 13.55   2.4767 2.7055  92.2 19.3 .111  95
2020 10 18 03  07 29 00.000   +08 47 01.03   2.4762 2.7056  92.3 19.3 .111  95
2020 10 18 04  07 29 02.368   +08 46 48.51   2.4757 2.7056  92.3 19.3 .112  95
2020 10 18 05  07 29 04.734   +08 46 35.99   2.4752 2.7056  92.3 19.3 .112  95
2020 10 18 06  07 29 07.098   +08 46 23.47   2.4747 2.7057  92.4 19.3 .112  95
2020 10 18 07  07 29 09.460   +08 46 10.95   2.4743 2.7057  92.4 19.3 .112  95
2020 10 18 08  07 29 11.820   +08 45 58.44   2.4738 2.7057  92.4 19.3 .113  95
2020 10 18 09  07 29 14.178   +08 45 45.92   2.4733 2.7057  92.5 19.3 .113  95
2020 10 18 10  07 29 16.534   +08 45 33.41   2.4728 2.7058  92.5 19.3 .113  95
2020 10 18 11  07 29 18.889   +08 45 20.90   2.4723 2.7058  92.5 19.3 .114  95
2020 10 18 12  07 29 21.242   +08 45 08.38   2.4718 2.7058  92.5 19.3 .114  95
2020 10 18 13  07 29 23.592   +08 44 55.87   2.4714 2.7058  92.6 19.3 .114  95
2020 10 18 14  07 29 25.941   +08 44 43.36   2.4709 2.7059  92.6 19.3 .114  95
2020 10 18 15  07 29 28.288   +08 44 30.86   2.4704 2.7059  92.6 19.3 .115  95
2020 10 18 16  07 29 30.634   +08 44 18.35   2.4699 2.7059  92.7 19.3 .115  95
2020 10 18 17  07 29 32.977   +08 44 05.84   2.4694 2.7060  92.7 19.3 .115  95
2020 10 18 18  07 29 35.318   +08 43 53.34   2.4690 2.7060  92.7 19.3 .116  95
2020 10 18 19  07 29 37.658   +08 43 40.83   2.4685 2.7060  92.8 19.3 .116  95
2020 10 18 20  07 29 39.996   +08 43 28.33   2.4680 2.7060  92.8 19.3 .116  95
2020 10 18 21  07 29 42.331   +08 43 15.83   2.4675 2.7061  92.8 19.3 .116  95
2020 10 18 22  07 29 44.665   +08 43 03.33   2.4670 2.7061  92.9 19.3 .117  95
2020 10 18 23  07 29 46.997   +08 42 50.83   2.4666 2.7061  92.9 19.3 .117  95
2020 10 19 00  07 29 49.327   +08 42 38.33   2.4661 2.7062  92.9 19.3 .117  95
2020 10 19 01  07 29 51.656   +08 42 25.83   2.4656 2.7062  92.9 19.3 .118  95
2020 10 19 02  07 29 53.982   +08 42 13.33   2.4651 2.7062  93.0 19.3 .118  95
2020 10 19 03  07 29 56.307   +08 42 00.84   2.4646 2.7062  93.0 19.3 .118  95
2020 10 19 04  07 29 58.629   +08 41 48.35   2.4642 2.7063  93.0 19.3 .118  95
2020 10 19 05  07 30 00.950   +08 41 35.85   2.4637 2.7063  93.1 19.3 .119  95
2020 10 19 06  07 30 03.269   +08 41 23.36   2.4632 2.7063  93.1 19.3 .119  95
2020 10 19 07  07 30 05.586   +08 41 10.87   2.4627 2.7063  93.1 19.3 .119  95
2020 10 19 08  07 30 07.901   +08 40 58.38   2.4622 2.7064  93.2 19.3 .120  95
2020 10 19 09  07 30 10.214   +08 40 45.90   2.4618 2.7064  93.2 19.3 .120  95
2020 10 19 10  07 30 12.525   +08 40 33.41   2.4613 2.7064  93.2 19.3 .120  95
2020 10 19 11  07 30 14.834   +08 40 20.93   2.4608 2.7065  93.2 19.3 .121  95
2020 10 19 12  07 30 17.142   +08 40 08.44   2.4603 2.7065  93.3 19.3 .121  96
2020 10 19 13  07 30 19.448   +08 39 55.96   2.4598 2.7065  93.3 19.3 .121  96
2020 10 19 14  07 30 21.751   +08 39 43.48   2.4594 2.7065  93.3 19.2 .121  96
2020 10 19 15  07 30 24.053   +08 39 31.00   2.4589 2.7066  93.4 19.2 .122  96
2020 10 19 16  07 30 26.353   +08 39 18.52   2.4584 2.7066  93.4 19.2 .122  96
2020 10 19 17  07 30 28.651   +08 39 06.04   2.4579 2.7066  93.4 19.2 .122  96
2020 10 19 18  07 30 30.947   +08 38 53.57   2.4574 2.7067  93.5 19.2 .123  96
2020 10 19 19  07 30 33.241   +08 38 41.10   2.4570 2.7067  93.5 19.2 .123  96
2020 10 19 20  07 30 35.534   +08 38 28.62   2.4565 2.7067  93.5 19.2 .123  96
2020 10 19 21  07 30 37.824   +08 38 16.15   2.4560 2.7067  93.5 19.2 .123  96
2020 10 19 22  07 30 40.113   +08 38 03.68   2.4555 2.7068  93.6 19.2 .124  96
2020 10 19 23  07 30 42.399   +08 37 51.21   2.4550 2.7068  93.6 19.2 .124  96
2020 10 20 00  07 30 44.684   +08 37 38.75   2.4546 2.7068  93.6 19.2 .124  96
2020 10 20 01  07 30 46.967   +08 37 26.28   2.4541 2.7069  93.7 19.2 .125  96
2020 10 20 02  07 30 49.248   +08 37 13.82   2.4536 2.7069  93.7 19.2 .125  96
2020 10 20 03  07 30 51.527   +08 37 01.35   2.4531 2.7069  93.7 19.2 .125  96
2020 10 20 04  07 30 53.804   +08 36 48.89   2.4526 2.7069  93.8 19.2 .125  96
2020 10 20 05  07 30 56.079   +08 36 36.43   2.4522 2.7070  93.8 19.2 .126  96
2020 10 20 06  07 30 58.352   +08 36 23.98   2.4517 2.7070  93.8 19.2 .126  96
2020 10 20 07  07 31 00.624   +08 36 11.52   2.4512 2.7070  93.9 19.2 .126  96
2020 10 20 08  07 31 02.893   +08 35 59.06   2.4507 2.7071  93.9 19.2 .127  96
2020 10 20 09  07 31 05.161   +08 35 46.61   2.4502 2.7071  93.9 19.2 .127  96
2020 10 20 10  07 31 07.426   +08 35 34.16   2.4498 2.7071  93.9 19.2 .127  96
2020 10 20 11  07 31 09.690   +08 35 21.71   2.4493 2.7071  94.0 19.2 .127  96
